Change the Weather History Date:

Sunday, April 27, 2014

  Actual Average Record
Temperature  
Mean Temperature 50 °F -  
Max Temperature 57 °F 67 °F 90 °F (1987)
Min Temperature 44 °F 41 °F 26 °F (1992)
Degree Days  
Heating Degree Days 14    
Moisture  
Dew Point 45 °F    
Average Humidity 81    
Maximum Humidity 99    
Minimum Humidity 49    
Precipitation  
Precipitation 0.09 in - - ()
Sea Level Pressure  
Sea Level Pressure 29.48 in    
Wind  
Wind Speed 21 mph (ESE)    
Max Wind Speed 28 mph    
Max Gust Speed 41 mph    
Visibility 9 miles    
Events Rain , Thunderstorm    
Averages and records for this station are not official NWS values.
T = Trace of Precipitation, MM = Missing Value Source: NWS Daily Summary

Daily Weather History Graph

Daily Weather History Graph

Search for Another Location

Airport or City:

Trip Planner

Search our weather history database for the weather conditions in past years. The results will help you decide how hot, cold, wet, or windy it might be!

Date:

Astronomy

Apr. 27, 2014 Rise Set
Actual Time 6:22 AM CDT 8:18 PM CDT
Civil Twilight 5:51 AM CDT 8:48 PM CDT
Nautical Twilight 5:14 AM CDT 9:26 PM CDT
Astronomical Twilight 4:34 AM CDT 10:06 PM CDT
Moon 5:26 AM CDT (4/27) 6:51 PM CDT (4/27)
Length of Visible Light 14h 56m
Length of Day
13h 55m
Waning Crescent, 3% of the Moon is Illuminated
Apr 27
Waning Crescent
Apr 29
New
May 6
First Quarter
May 14
Full
May 21
Last Quarter

Hourly Weather History & Observations

Time (CDT) Temp. Windchill Dew Point Humidity Pressure Visibility Wind Dir Wind Speed Gust Speed Precip Events Conditions
12:15 AM 57.6 °F - 38.7 °F 49% 29.63 in 10.0 mi East 24.2 mph 34.5 mph N/A   Overcast
12:35 AM 57.2 °F - 38.5 °F 50% 29.63 in 10.0 mi East 24.2 mph 35.7 mph N/A   Overcast
12:55 AM 56.5 °F - 38.7 °F 51% 29.63 in 10.0 mi East 20.7 mph 34.5 mph N/A   Overcast
1:15 AM 55.4 °F - 39.2 °F 54% 29.62 in 10.0 mi East 19.6 mph 29.9 mph N/A   Overcast
1:35 AM 54.7 °F - 39.6 °F 57% 29.62 in 10.0 mi East 21.9 mph 29.9 mph N/A   Overcast
1:55 AM 53.8 °F - 40.1 °F 60% 29.61 in 10.0 mi East 24.2 mph 33.4 mph N/A   Overcast
2:15 AM 53.6 °F - 40.3 °F 61% 29.61 in 10.0 mi East 21.9 mph 35.7 mph N/A Thunderstorm Overcast
2:35 AM 52.7 °F - 40.1 °F 62% 29.60 in 10.0 mi ESE 21.9 mph 34.5 mph N/A   Overcast
2:55 AM 51.1 °F - 39.2 °F 64% 29.59 in 10.0 mi ESE 23.0 mph 32.2 mph N/A   Mostly Cloudy
3:15 AM 50.0 °F - 39.2 °F 66% 29.58 in 10.0 mi ESE 23.0 mph 31.1 mph N/A   Mostly Cloudy
3:35 AM 48.9 °F - 38.5 °F 67% 29.57 in 10.0 mi ESE 24.2 mph 39.1 mph N/A   Overcast
3:55 AM 47.7 °F - 37.8 °F 69% 29.55 in 10.0 mi ESE 25.3 mph 35.7 mph N/A   Overcast
4:15 AM 46.4 °F 38.3 °F 36.9 °F 69% 29.55 in 10.0 mi ESE 23.0 mph 35.7 mph N/A   Overcast
4:35 AM 45.7 °F 37.6 °F 36.7 °F 71% 29.53 in 10.0 mi ESE 21.9 mph 36.8 mph N/A   Overcast
4:55 AM 44.6 °F 35.9 °F 36.0 °F 72% 29.53 in 10.0 mi ESE 23.0 mph 32.2 mph N/A   Mostly Cloudy
5:15 AM 44.2 °F 35.2 °F 35.6 °F 72% 29.53 in 10.0 mi ESE 24.2 mph 35.7 mph N/A   Overcast
5:35 AM 44.1 °F 35.7 °F 35.1 °F 71% 29.52 in 10.0 mi ESE 20.7 mph 35.7 mph N/A   Overcast
5:55 AM 44.6 °F 35.9 °F 35.6 °F 71% 29.51 in 10.0 mi ESE 23.0 mph 35.7 mph N/A Thunderstorm Overcast
6:15 AM 44.8 °F 35.3 °F 35.2 °F 69% 29.51 in 10.0 mi ESE 27.6 mph 36.8 mph N/A   Overcast
6:35 AM 45.0 °F 35.8 °F 35.6 °F 70% 29.51 in 10.0 mi ESE 26.5 mph 36.8 mph N/A   Overcast
6:55 AM 45.1 °F 37.1 °F 35.8 °F 70% 29.51 in 10.0 mi ESE 20.7 mph 35.7 mph N/A   Overcast
7:15 AM 45.5 °F 36.9 °F 36.1 °F 70% 29.52 in 10.0 mi ESE 24.2 mph 34.5 mph N/A   Overcast
7:35 AM 45.5 °F 37.1 °F 36.5 °F 71% 29.52 in 10.0 mi ESE 23.0 mph 34.5 mph N/A   Overcast
7:55 AM 45.7 °F 38.0 °F 36.9 °F 71% 29.52 in 10.0 mi ESE 19.6 mph 35.7 mph N/A   Overcast
8:15 AM 46.4 °F 39.0 °F 37.4 °F 71% 29.52 in 10.0 mi ESE 19.6 mph 32.2 mph N/A   Overcast
8:35 AM 46.6 °F - 37.8 °F 71% 29.52 in 10.0 mi ESE 6.9 mph 26.5 mph N/A   Overcast
8:55 AM 46.9 °F - 38.3 °F 72% 29.52 in 10.0 mi ESE 10.4 mph 18.4 mph N/A   Overcast
9:15 AM 47.8 °F - 39.2 °F 72% 29.52 in 10.0 mi ESE 15.0 mph 20.7 mph N/A   Mostly Cloudy
9:35 AM 48.7 °F - 40.1 °F 72% 29.51 in 10.0 mi ESE 16.1 mph 26.5 mph N/A   Clear
9:55 AM 49.3 °F - 40.3 °F 71% 29.51 in 10.0 mi ESE 13.8 mph 20.7 mph N/A   Clear
10:15 AM 49.3 °F - 40.6 °F 72% 29.53 in 10.0 mi SE 17.3 mph 23.0 mph N/A   Scattered Clouds
10:35 AM 49.3 °F - 41.4 °F 74% 29.54 in 10.0 mi SE 15.0 mph 21.9 mph N/A   Overcast
10:55 AM 49.6 °F - 42.8 °F 77% 29.52 in 10.0 mi SE 10.4 mph 24.2 mph N/A   Overcast
11:15 AM 49.5 °F - 43.5 °F 80% 29.52 in 10.0 mi SE 16.1 mph 21.9 mph N/A   Overcast
11:35 AM 49.3 °F - 43.9 °F 82% 29.54 in 10.0 mi ESE 13.8 mph 19.6 mph N/A Rain Light Rain
11:55 AM 48.6 °F - 45.1 °F 88% 29.43 in 5.0 mi West 9.2 mph 26.5 mph N/A Rain Light Rain
12:35 PM 47.7 °F - 45.0 °F 90% 29.52 in 7.0 mi East 12.7 mph 20.7 mph 0.01 in Rain Light Rain
12:55 PM 48.0 °F - 45.7 °F 92% 29.51 in 5.0 mi ESE 12.7 mph 17.3 mph 0.02 in Rain Rain
1:15 PM 48.6 °F - 46.6 °F 93% 29.51 in 5.0 mi ESE 11.5 mph 17.3 mph 0.01 in Rain , Thunderstorm Thunderstorms and Rain
1:35 PM 49.1 °F - 47.3 °F 93% 29.48 in 4.0 mi East 15.0 mph 18.4 mph 0.04 in Rain , Thunderstorm Rain
1:55 PM 49.3 °F - 47.7 °F 94% 29.47 in 4.0 mi East 20.7 mph 25.3 mph 0.06 in Rain , Thunderstorm Thunderstorms and Rain
2:15 PM 49.3 °F - 48.2 °F 96% 29.42 in 4.0 mi East 24.2 mph 31.1 mph 0.01 in Rain Light Rain
2:35 PM 49.6 °F - 48.9 °F 97% 29.43 in 7.0 mi East 23.0 mph 31.1 mph 0.01 in Thunderstorm Thunderstorm
2:55 PM 50.0 °F - 49.1 °F 97% 29.40 in 5.0 mi East 20.7 mph 36.8 mph 0.01 in Rain , Thunderstorm Light Thunderstorms and Rain
3:15 PM 50.4 °F - 50.0 °F 99% 29.39 in 7.0 mi East 20.7 mph 29.9 mph N/A   Mostly Cloudy
3:35 PM 52.9 °F - 52.2 °F 97% 29.37 in 10.0 mi East 20.7 mph 32.2 mph N/A   Clear
3:55 PM 53.6 °F - 52.2 °F 95% 29.36 in 10.0 mi East 26.5 mph 36.8 mph N/A   Clear
4:15 PM 54.0 °F - 52.3 °F 94% 29.38 in 10.0 mi East 23.0 mph 31.1 mph N/A   Clear
4:35 PM 54.0 °F - 52.3 °F 94% 29.33 in 10.0 mi East 20.7 mph 27.6 mph N/A   Mostly Cloudy
5:15 PM 54.7 °F - 52.9 °F 94% 29.35 in 10.0 mi East 24.2 mph 32.2 mph N/A   Mostly Cloudy
5:35 PM 54.7 °F - 52.9 °F 94% 29.36 in 10.0 mi ESE 21.9 mph 41.4 mph N/A   Scattered Clouds
5:55 PM 55.2 °F - 53.1 °F 92% 29.36 in 10.0 mi East 23.0 mph 29.9 mph N/A   Scattered Clouds
6:15 PM 55.4 °F - 53.2 °F 92% 29.37 in 10.0 mi East 20.7 mph 32.2 mph N/A   Clear
6:35 PM 55.8 °F - 53.4 °F 92% 29.38 in 10.0 mi East 15.0 mph 27.6 mph N/A   Clear
6:55 PM 55.9 °F - 53.8 °F 92% 29.39 in 10.0 mi ESE 18.4 mph 28.8 mph N/A   Clear
7:15 PM 55.6 °F - 53.6 °F 93% 29.39 in 10.0 mi ESE 19.6 mph 27.6 mph N/A   Clear
7:35 PM 55.6 °F - 53.1 °F 91% 29.40 in 10.0 mi East 17.3 mph 21.9 mph N/A   Clear
7:55 PM 54.5 °F - 51.8 °F 91% 29.40 in 10.0 mi East 17.3 mph 23.0 mph N/A   Clear
8:15 PM 53.6 °F - 51.1 °F 91% 29.40 in 10.0 mi East 15.0 mph 20.7 mph N/A   Clear
8:35 PM 53.1 °F - 50.9 °F 92% 29.41 in 10.0 mi ESE 15.0 mph 24.2 mph N/A   Clear
8:55 PM 53.6 °F - 52.0 °F 94% 29.42 in 10.0 mi ESE 16.1 mph 25.3 mph N/A   Mostly Cloudy
9:15 PM 54.7 °F - 53.1 °F 94% 29.42 in 10.0 mi ESE 16.1 mph 24.2 mph N/A   Overcast
9:35 PM 55.6 °F - 54.5 °F 96% 29.41 in 10.0 mi ESE 15.0 mph 26.5 mph N/A   Overcast
9:55 PM 56.5 °F - 55.4 °F 96% 29.42 in 10.0 mi ESE 20.7 mph 28.8 mph N/A   Overcast
10:15 PM 57.4 °F - 56.3 °F 96% 29.41 in 10.0 mi ESE 20.7 mph 27.6 mph N/A   Overcast
10:35 PM 57.7 °F - 56.5 °F 96% 29.41 in 10.0 mi ESE 23.0 mph 29.9 mph N/A   Overcast
10:55 PM 57.6 °F - 56.3 °F 96% 29.40 in 10.0 mi ESE 20.7 mph 27.6 mph N/A   Overcast
11:15 PM 57.2 °F - 55.8 °F 95% 29.40 in 7.0 mi ESE 19.6 mph 28.8 mph N/A   Overcast
11:35 PM 56.7 °F - 55.4 °F 96% 29.39 in 4.0 mi ESE 21.9 mph 29.9 mph N/A   Overcast
11:55 PM 57.0 °F - 55.9 °F 96% 29.39 in 10.0 mi ESE 23.0 mph 32.2 mph N/A   Overcast